Карточка аэропорта URKK

Внимание!
Информация на этой странице в стадии наполнения.
Если вы не увидели какой-то информации, или заметили неточность - пожалуйста сообщите нам!
Спасибо!
Команда RU-STAFF
Название аэропортаПашковский
Название аэропорта (англ.)Pashkovskiy
Превышение120 ft. (36.6 m.)
Координаты45°2.0820000000001', 39°10.218'
Высота перехода4000 ft
Эшелон переходаFL60 (QNH >= 977); FL70 (QNH < 977)
Коды ответчика1030-1037
Зона ОрВДРостов-на-Дону РПИ (URRV)
Данные METARURKK 070930Z 07003MPS 9999 -RA BKN048 01/M03 Q1021 R05R/290060 NOSIG RMK QFE763
Проноз погоды (TAF)URKK 070909Z 0709/0809 09003G08MPS 9999 SCT030CB TEMPO 0709/0718 -SHRA BKN020CB
NOTAMshow/hide NOTAM
AWOS   TABLE

Информация о ВПП

ВПП Длина ВПП (м.) Покрытие Курс ВПП Частота ILS
05R3000Железобетон46 
23L3000Железобетон226 
05L2200Асфальтобетон46 
23R2200Асфальтобетон226 

Диспетчерские позиции

Позывной Наименование органа УВД Частота
URKK_APPКраснодар-Подход129.6
URKK_GNDКраснодар-Руление119.0
URKK_R_APPКраснодар-Круг121.3
URKK_TWRКраснодар-Вышка118.2



Спутниковое изображение